Location: Bakov nad Jizerou
(50.4784°N, 14.9394°E)
Time: 07:09:07
(UTC+00:00)

Cosmos 1606 Rocket - Pass Details

Date: 16 June 2021
Orbit: 602 x 633 km, 82.5° (Epoch: 05 August)

Event Time Altitude Azimuth Distance (km) Brightness Sun altitude
Rises 22:03:18 0° 347° (NNW) 2,942 9.0 -15.0°
Reaches altitude 10° 22:05:34 10° 344° (NNW) 2,028 7.6 -15.1°
Maximum altitude 22:10:01 64° 264° (W) 702 3.8 -15.3°
Enters shadow 22:12:31 25° 189° (S) 1,278 4.6 -15.4°
